AI4ZL Weather Reports


time (UTC)temp
C
wind
direction
speed
KPH
gust
KPH
rain 1hr
cm
rain 24hr
cm
rain mn
cm
humidity
%
barometer
mb
20260906095232 22 0.0 0.0 0.00 0.00 0.00 99 1013.7
20260906094248 22 0.0 0.0 0.00 0.00 0.00 99 1013.6
20260906093303 22 0.0 0.0 0.00 0.00 0.00 99 1013.6
20260906092258 23 309 0.0 1.6 0.00 0.00 0.00 99 1013.5
20260906091233 23 313 0.0 1.6 0.00 0.00 0.00 99 1013.3
20260906090309 23 0.0 0.0 0.00 0.00 0.00 99 1013.3
20260906085244 23 314 0.0 1.6 0.00 0.00 0.00 99 1013.3
20260906084258 23 318 0.0 1.6 0.00 0.00 0.00 99 1013.4
20260906083232 23 313 0.0 1.6 0.00 0.00 0.00 99 1013.3
20260906082247 23 25 0.0 1.6 0.00 0.00 0.00 98 1013.3
20260906081243 23 67 0.0 1.6 0.00 0.00 0.00 98 1013.3
20260906080239 23 0.0 0.0 0.00 0.00 0.00 98 1013.2
20260906075234 23 0.0 0.0 0.00 0.00 0.00 98 1013.1
20260906074230 23 306 0.0 1.6 0.00 0.00 0.00 98 1013.1
20260906073246 24 0.0 0.0 0.00 0.00 0.00 97 1013.2
20260906072241 24 0.0 0.0 0.00 0.00 0.00 97 1013.0
20260906071236 24 307 1.6 1.6 0.00 0.00 0.00 96 1013.2
20260906070231 24 313 0.0 1.6 0.00 0.00 0.00 97 1013.1
20260906065247 24 316 0.0 1.6 0.00 0.00 0.00 98 1013.2
20260906064301 24 331 0.0 1.6 0.00 0.00 0.00 98 1013.4
20260906063236 24 345 0.0 1.6 0.00 0.00 0.00 98 1013.4
20260906062250 24 322 0.0 1.6 0.00 0.00 0.00 98 1013.5
20260906061245 24 318 0.0 1.6 0.00 0.00 0.00 98 1013.6
20260906060239 24 304 0.0 1.6 0.00 0.00 0.00 98 1013.8
20260906055235 25 0.0 0.0 0.00 0.00 0.00 97 1013.7
20260906054250 25 0.0 0.0 0.00 0.00 0.00 97 1013.7
20260906053245 25 0.0 0.0 0.00 0.00 0.00 97 1013.8
20260906052239 25 0.0 0.0 0.00 0.00 0.00 97 1013.6
20260906051234 25 318 0.0 1.6 0.00 0.00 0.00 97 1013.8
20260906050250 25 0.0 0.0 0.00 0.00 0.00 97 1013.9
20260906045246 25 0.0 0.0 0.00 0.00 0.00 97 1013.6
20260906044242 25 312 0.0 1.6 0.00 0.00 0.00 97 1013.7
20260906043236 25 0.0 0.0 0.00 0.00 0.00 97 1013.7
20260906042252 25 302 0.0 1.6 0.00 0.00 0.00 97 1013.6
20260906041307 25 0.0 0.0 0.00 0.00 0.00 96 1013.5
20260906040242 25 0.0 0.0 0.00 0.00 0.00 96 1013.6
20260906035258 26 0.0 0.0 0.00 0.00 0.00 95 1013.5
20260906034253 26 0.0 0.0 0.00 0.00 0.00 95 1013.4
20260906033308 26 0.0 0.0 0.00 0.00 0.00 95 1013.3
20260906032242 26 0.0 0.0 0.00 0.00 0.00 94 1013.3
20260906031237 26 0.0 0.0 0.00 0.00 0.00 93 1013.3
20260906030232 26 0.0 0.0 0.00 0.00 0.00 93 1013.3
20260906025307 26 309 0.0 1.6 0.00 0.00 0.00 92 1013.1
20260906024242 26 336 0.0 1.6 0.00 0.00 0.00 92 1013.1
20260906023238 26 223 0.0 1.6 0.00 0.00 0.00 92 1013.0
20260906022233 27 214 0.0 1.6 0.00 0.00 0.00 90 1012.9
20260906021247 27 336 0.0 1.6 0.00 0.00 0.00 89 1013.0
20260906020241 27 209 1.6 4.8 0.00 0.00 0.00 90 1012.8
20260906015236 27 292 1.6 1.6 0.00 0.00 0.00 90 1012.6
20260906014231 27 0.0 0.0 0.00 0.00 0.00 88 1012.4
20260906013245 28 321 0.0 1.6 0.00 0.00 0.00 86 1012.4
20260906012240 28 294 0.0 1.6 0.00 0.00 0.00 85 1012.3
20260906011255 28 284 1.6 1.6 0.00 0.00 0.00 85 1012.4
20260906010230 28 312 0.0 1.6 0.00 0.00 0.00 86 1012.4
20260906005245 29 313 0.0 1.6 0.00 0.00 0.00 83 1012.3
20260906004301 30 309 0.0 1.6 0.00 0.00 0.00 79 1012.4
20260906003238 30 321 0.0 1.6 0.00 0.00 0.00 78 1012.3
20260906002234 31 307 0.0 1.6 0.00 0.00 0.00 76 1012.3
20260906001309 32 304 0.0 1.6 0.00 0.00 0.00 73 1012.3
20260906000244 32 304 0.0 1.6 0.00 0.00 0.00 71 1012.3
20260905235239 33 294 1.6 3.2 0.00 0.00 0.00 69 1012.3
20260905234234 33 299 1.6 3.2 0.00 0.00 0.00 69 1012.5
20260905233249 33 305 1.6 1.6 0.00 0.00 0.00 68 1012.5
20260905232243 33 284 1.6 3.2 0.00 0.00 0.00 66 1012.5
20260905231238 34 278 1.6 3.2 0.00 0.00 0.00 61 1012.3
20260905230253 35 268 3.2 3.2 0.00 0.00 0.00 60 1012.3
20260905225308 35 286 1.6 3.2 0.00 0.00 0.00 58 1012.2
20260905224303 35 272 1.6 3.2 0.00 0.00 0.00 57 1012.2
20260905223258 35 266 3.2 4.8 0.00 0.00 0.00 56 1012.3
20260905222233 36 249 4.8 9.7 0.00 0.00 0.00 54 1012.3
20260905221250 37 258 6.4 11.3 0.00 0.00 0.00 52 1012.4
20260905220246 37 261 4.8 9.7 0.00 0.00 0.00 50 1012.3
20260905215242 37 255 3.2 6.4 0.00 0.00 0.00 52 1012.4
20260905214257 38 280 4.8 12.9 0.00 0.00 0.00 48 1012.4
20260905213232 38 270 4.8 6.4 0.00 0.00 0.00 48 1012.4
20260905212247 38 270 1.6 4.8 0.00 0.00 0.00 47 1012.5
20260905211242 38 300 3.2 11.3 0.00 0.00 0.00 47 1012.5
20260905210237 38 257 4.8 9.7 0.00 0.00 0.00 49 1012.6
20260905205232 38 298 3.2 9.7 0.00 0.00 0.00 48 1012.8
20260905204248 38 303 1.6 3.2 0.00 0.00 0.00 46 1012.8
20260905203243 38 290 3.2 9.7 0.00 0.00 0.00 46 1012.7
20260905202237 38 308 1.6 4.8 0.00 0.00 0.00 47 1013.0
20260905201232 38 273 4.8 11.3 0.00 0.00 0.00 48 1013.1
20260905200247 38 356 1.6 4.8 0.00 0.00 0.00 48 1013.4
20260905195242 38 287 1.6 4.8 0.00 0.00 0.00 49 1013.7
20260905194236 39 20 1.6 4.8 0.00 0.00 0.00 49 1013.8
20260905193252 38 274 1.6 3.2 0.00 0.00 0.00 49 1013.8
20260905192246 38 295 1.6 1.6 0.00 0.00 0.00 49 1013.9
20260905191241 38 299 1.6 3.2 0.00 0.00 0.00 49 1014.0
20260905190256 38 274 3.2 4.8 0.00 0.00 0.00 49 1014.2
20260905185231 38 29 1.6 4.8 0.00 0.00 0.00 50 1014.3
20260905184246 38 23 1.6 3.2 0.00 0.00 0.00 50 1014.5
20260905183241 37 335 1.6 4.8 0.00 0.00 0.00 50 1014.6
20260905182236 38 282 3.2 6.4 0.00 0.00 0.00 50 1014.6
20260905181232 38 42 1.6 3.2 0.00 0.00 0.00 49 1014.7
20260905180247 37 308 1.6 4.8 0.00 0.00 0.00 50 1014.9
20260905175243 37 345 1.6 4.8 0.00 0.00 0.00 53 1015.1
20260905174237 38 300 1.6 6.4 0.00 0.00 0.00 52 1015.1
20260905173232 37 290 1.6 6.4 0.00 0.00 0.00 52 1015.1
20260905172247 36 310 3.2 9.7 0.00 0.00 0.00 54 1015.2
20260905171302 36 264 3.2 6.4 0.00 0.00 0.00 55 1015.3
20260905170238 37 284 3.2 9.7 0.00 0.00 0.00 54 1015.5
20260905165233 36 326 3.2 6.4 0.00 0.00 0.00 54 1015.6
20260905164248 36 273 3.2 9.7 0.00 0.00 0.00 56 1015.6
20260905163243 37 0 1.6 3.2 0.00 0.00 0.00 55 1015.7
20260905162238 36 277 1.6 3.2 0.00 0.00 0.00 56 1015.8
20260905161233 36 277 1.6 3.2 0.00 0.00 0.00 59 1015.8
20260905160248 36 307 1.6 4.8 0.00 0.00 0.00 58 1015.8
20260905155244 36 325 1.6 3.2 0.00 0.00 0.00 59 1015.8
20260905154239 35 61 1.6 4.8 0.00 0.00 0.00 64 1016.0
20260905153233 35 40 1.6 4.8 0.00 0.00 0.00 65 1016.1
20260905152248 33 79 1.6 3.2 0.00 0.00 0.00 67 1016.0
20260905151242 33 60 1.6 4.8 0.00 0.00 0.00 68 1016.0
20260905150239 33 43 1.6 4.8 0.00 0.00 0.00 68 1015.9
20260905145235 33 35 1.6 4.8 0.00 0.00 0.00 70 1016.0
20260905144231 33 42 1.6 3.2 0.00 0.00 0.00 69 1015.9
20260905143247 33 17 0.0 3.2 0.00 0.00 0.00 71 1015.9
20260905142242 32 50 1.6 1.6 0.00 0.00 0.00 73 1016.0
20260905141237 31 15 1.6 3.2 0.00 0.00 0.00 75 1016.0
20260905140231 30 273 3.2 4.8 0.00 0.00 0.00 76 1015.9
20260905135246 31 0.0 0.0 0.00 0.00 0.00 79 1016.1
20260905134241 30 0.0 0.0 0.00 0.00 0.00 81 1015.9
20260905133236 29 0.0 0.0 0.00 0.00 0.00 85 1015.9
20260905132230 27 0.0 0.0 0.00 0.00 0.00 94 1016.0
20260905131246 26 0.0 0.0 0.00 0.00 0.00 99 1015.8
20260905130241 25 0.0 0.0 0.00 0.00 0.00 99 1015.9
20260905125234 24 0.0 0.0 0.00 0.00 0.00 99 1015.8
20260905124249 23 0.0 0.0 0.00 0.00 0.00 99 1015.7
20260905123244 23 0.0 0.0 0.00 0.00 0.00 99 1015.6
20260905122238 23 0.0 0.0 0.00 0.00 0.00 99 1015.7
20260905121234 22 0.0 0.0 0.00 0.00 0.00 99 1015.5
20260905120248 22 0.0 0.0 0.00 0.00 0.00 99 1015.5
20260905115243 22 0.0 0.0 0.00 0.00 0.00 99 1015.4
20260905114237 22 0.0 0.0 0.00 0.00 0.00 99 1015.4
20260905113230 22 0.0 0.0 0.00 0.00 0.00 99 1015.3
20260905112245 22 0.0 0.0 0.00 0.00 0.00 99 1015.3
20260905111240 22 0.0 0.0 0.00 0.00 0.00 99 1015.3
20260905110235 22 0.0 0.0 0.00 0.00 0.00 99 1015.2
20260905105309 22 0.0 0.0 0.00 0.00 0.00 99 1015.2
20260905104305 22 0.0 0.0 0.00 0.00 0.00 99 1015.0
20260905103239 22 0.0 0.0 0.00 0.00 0.00 99 1015.0
20260905102233 22 0.0 0.0 0.00 0.00 0.00 99 1014.9
20260905101248 22 0.0 0.0 0.00 0.00 0.00 99 1014.8
20260905100243 22 0.0 0.0 0.00 0.00 0.00 99 1014.7